• în România
  • Lista ţărilor
  • Pe 7 zile
  • Temperatura apei
  • Hartă satelitară
  • Meteo pe hartă
  • Widget-uri
  • user-avatar
    Intrare

    Meteo pe oră la Jimbolia

    Astăzi, 22 Octombrie, Luni

    Timp Temperatura Precipitaţii Vânt Presiune Umiditate
    00:00 +9°C° 0 mm 1 m/s 761 mmHg 77%
    01:00 +9°C° 0 mm 1 m/s 761 mmHg 81%
    02:00 +9°C° 0 mm 1 m/s 761 mmHg 82%
    03:00 +9°C° 0 mm 1 m/s 761 mmHg 82%
    04:00 +9°C° 0 mm 1 m/s 761 mmHg 83%
    05:00 +9°C° 0 mm 1 m/s 761 mmHg 82%
    06:00 +10°C° 0 mm 1 m/s 761 mmHg 81%
    07:00 +10°C° 0 mm 1 m/s 761 mmHg 78%
    08:00 +11°C° 0 mm 1 m/s 761 mmHg 75%
    09:00 +12°C° 0 mm 1 m/s 761 mmHg 73%
    10:00 +13°C° 0 mm 1 m/s 761 mmHg 70%
    11:00 +14°C° 0 mm 1 m/s 761 mmHg 66%
    12:00 +15°C° 0 mm 1 m/s 761 mmHg 62%
    13:00 +18°C° 0 mm 1 m/s 760 mmHg 58%
    14:00 +18°C° 0 mm 1 m/s 760 mmHg 59%
    15:00 +18°C° 0 mm 1 m/s 760 mmHg 60%
    16:00 +18°C° 0 mm 1 m/s 759 mmHg 60%
    17:00 +16°C° 0 mm 1 m/s 760 mmHg 64%
    18:00 +15°C° 0 mm 1 m/s 760 mmHg 68%
    19:00 +14°C° 0 mm 2 m/s 760 mmHg 72%
    20:00 +13°C° 0 mm 2 m/s 760 mmHg 73%
    21:00 +13°C° 0 mm 2 m/s 760 mmHg 74%
    22:00 +13°C° 0 mm 2 m/s 760 mmHg 75%
    23:00 +12°C° 0 mm 2 m/s 760 mmHg 76%

    Mâine, 23 Octombrie, Marţi

    Timp Temperatura Precipitaţii Vânt Presiune Umiditate
    00:00 +12°C° 0 mm 2 m/s 760 mmHg 76%
    01:00 +12°C° 0 mm 2 m/s 760 mmHg 77%
    02:00 +10°C° 0 mm 2 m/s 760 mmHg 77%
    03:00 +10°C° 0 mm 2 m/s 760 mmHg 77%
    04:00 +10°C° 0 mm 1 m/s 759 mmHg 77%
    05:00 +9°C° 0 mm 2 m/s 760 mmHg 76%
    06:00 +9°C° 0 mm 2 m/s 760 mmHg 74%
    07:00 +9°C° 0 mm 2 m/s 760 mmHg 72%
    08:00 +12°C° 0 mm 2 m/s 760 mmHg 65%
    09:00 +13°C° 0 mm 3 m/s 760 mmHg 57%
    10:00 +14°C° 0 mm 3 m/s 760 mmHg 49%
    11:00 +16°C° 0 mm 3 m/s 759 mmHg 46%
    12:00 +17°C° 0 mm 4 m/s 759 mmHg 42%
    13:00 +17°C° 0 mm 5 m/s 758 mmHg 39%
    14:00 +18°C° 0 mm 4 m/s 758 mmHg 40%
    15:00 +17°C° 0 mm 4 m/s 757 mmHg 42%
    16:00 +17°C° 0 mm 4 m/s 757 mmHg 43%
    17:00 +16°C° 0 mm 3 m/s 757 mmHg 46%
    18:00 +14°C° 0 mm 3 m/s 757 mmHg 49%
    19:00 +13°C° 0 mm 3 m/s 757 mmHg 52%
    20:00 +13°C° 0 mm 3 m/s 756 mmHg 54%
    21:00 +13°C° 0 mm 3 m/s 756 mmHg 55%
    22:00 +12°C° 0 mm 3 m/s 756 mmHg 57%
    23:00 +12°C° 0 mm 4 m/s 755 mmHg 58%

    Poimâine, 24 Octombrie, Miercuri

    Timp Temperatura Precipitaţii Vânt Presiune Umiditate
    00:00 +12°C° 0 mm 4 m/s 754 mmHg 59%
    01:00 +12°C° 0 mm 5 m/s 754 mmHg 61%
    02:00 +12°C° 0.1 mm 5 m/s 753 mmHg 61%
    03:00 +13°C° 0.1 mm 5 m/s 752 mmHg 61%
    04:00 +13°C° 0.1 mm 6 m/s 752 mmHg 61%
    05:00 +13°C° 0.1 mm 6 m/s 751 mmHg 59%
    06:00 +13°C° 0.1 mm 6 m/s 750 mmHg 58%
    07:00 +12°C° 0.1 mm 7 m/s 750 mmHg 56%
    08:00 +15°C° 0 mm 8 m/s 750 mmHg 53%
    09:00 +16°C° 0 mm 9 m/s 749 mmHg 49%
    10:00 +17°C° 0 mm 10 m/s 749 mmHg 45%
    11:00 +16°C° 0.7 mm 10 m/s 749 mmHg 50%
    12:00 +14°C° 0.7 mm 10 m/s 749 mmHg 54%
    13:00 +12°C° 0.7 mm 10 m/s 749 mmHg 59%
    14:00 +12°C° 0.4 mm 9 m/s 749 mmHg 52%
    15:00 +12°C° 0.4 mm 9 m/s 750 mmHg 46%
    16:00 +12°C° 0.4 mm 8 m/s 750 mmHg 40%
    17:00 +11°C° 0 mm 7 m/s 751 mmHg 42%
    18:00 +10°C° 0 mm 6 m/s 752 mmHg 44%
    19:00 +8°C° 0 mm 5 m/s 752 mmHg 45%
    20:00 +8°C° 0 mm 5 m/s 753 mmHg 47%
    21:00 +7°C° 0 mm 5 m/s 754 mmHg 49%
    22:00 +7°C° 0 mm 4 m/s 754 mmHg 50%
    23:00 +6°C° 0 mm 4 m/s 754 mmHg 52%

    25 Octombrie, Joi

    Timp Temperatura Precipitaţii Vânt Presiune Umiditate
    00:00 +6°C° 0 mm 4 m/s 755 mmHg 53%
    01:00 +6°C° 0 mm 4 m/s 755 mmHg 55%
    02:00 +5°C° 0 mm 4 m/s 755 mmHg 57%
    03:00 +5°C° 0 mm 4 m/s 755 mmHg 59%
    04:00 +5°C° 0 mm 4 m/s 755 mmHg 61%
    05:00 +5°C° 0 mm 4 m/s 755 mmHg 63%
    06:00 +5°C° 0 mm 4 m/s 755 mmHg 64%
    07:00 +5°C° 0 mm 4 m/s 755 mmHg 65%
    08:00 +6°C° 0.1 mm 5 m/s 755 mmHg 67%
    09:00 +7°C° 0.1 mm 5 m/s 755 mmHg 69%
    10:00 +7°C° 0.1 mm 5 m/s 755 mmHg 71%
    11:00 +9°C° 0.5 mm 5 m/s 754 mmHg 68%
    12:00 +10°C° 0.5 mm 6 m/s 754 mmHg 65%
    13:00 +13°C° 0.5 mm 6 m/s 753 mmHg 63%
    14:00 +14°C° 0 mm 6 m/s 753 mmHg 61%
    15:00 +14°C° 0 mm 5 m/s 752 mmHg 60%
    16:00 +15°C° 0 mm 5 m/s 752 mmHg 58%
    17:00 +14°C° 0 mm 5 m/s 752 mmHg 60%
    18:00 +13°C° 0 mm 5 m/s 752 mmHg 62%
    19:00 +13°C° 0 mm 5 m/s 753 mmHg 64%
    20:00 +12°C° 0 mm 5 m/s 753 mmHg 65%
    21:00 +12°C° 0 mm 5 m/s 753 mmHg 67%
    22:00 +12°C° 0 mm 4 m/s 754 mmHg 69%
    23:00 +11°C° 0 mm 4 m/s 754 mmHg 72%

    26 Octombrie, Vineri

    Timp Temperatura Precipitaţii Vânt Presiune Umiditate
    00:00 +11°C° 0 mm 4 m/s 754 mmHg 74%
    01:00 +10°C° 0 mm 4 m/s 754 mmHg 77%
    02:00 +10°C° 0 mm 3 m/s 754 mmHg 79%
    03:00 +10°C° 0 mm 3 m/s 754 mmHg 81%
    04:00 +9°C° 0 mm 3 m/s 754 mmHg 83%
    05:00 +9°C° 0 mm 2 m/s 755 mmHg 83%
    06:00 +9°C° 0 mm 2 m/s 755 mmHg 83%
    07:00 +9°C° 0 mm 2 m/s 755 mmHg 83%
    08:00 +12°C° 0 mm 2 m/s 755 mmHg 75%
    09:00 +14°C° 0 mm 2 m/s 755 mmHg 67%
    10:00 +15°C° 0 mm 2 m/s 755 mmHg 58%
    11:00 +16°C° 0 mm 2 m/s 755 mmHg 54%
    12:00 +17°C° 0 mm 2 m/s 754 mmHg 49%
    13:00 +18°C° 0 mm 2 m/s 754 mmHg 44%
    14:00 +18°C° 0 mm 2 m/s 753 mmHg 46%
    15:00 +18°C° 0 mm 3 m/s 753 mmHg 48%
    16:00 +17°C° 0 mm 3 m/s 752 mmHg 49%
    17:00 +16°C° 0 mm 3 m/s 752 mmHg 53%
    18:00 +14°C° 0 mm 3 m/s 752 mmHg 56%
    19:00 +13°C° 0 mm 3 m/s 752 mmHg 59%
    20:00 +13°C° 0 mm 3 m/s 752 mmHg 60%
    21:00 +13°C° 0 mm 3 m/s 752 mmHg 60%
    22:00 +13°C° 0 mm 3 m/s 752 mmHg 61%
    23:00 +13°C° 0 mm 3 m/s 752 mmHg 61%

    27 Octombrie, Sâmbătă

    Timp Temperatura Precipitaţii Vânt Presiune Umiditate
    00:00 +13°C° 0 mm 3 m/s 752 mmHg 62%
    01:00 +12°C° 0 mm 3 m/s 752 mmHg 62%
    02:00 +12°C° 0 mm 3 m/s 751 mmHg 64%
    03:00 +12°C° 0 mm 4 m/s 751 mmHg 66%
    04:00 +12°C° 0 mm 4 m/s 751 mmHg 68%
    05:00 +12°C° 0 mm 4 m/s 751 mmHg 67%
    06:00 +13°C° 0 mm 5 m/s 751 mmHg 65%
    07:00 +13°C° 0 mm 5 m/s 751 mmHg 64%
    08:00 +15°C° 0 mm 6 m/s 751 mmHg 57%
    09:00 +17°C° 0 mm 6 m/s 751 mmHg 51%
    10:00 +20°C° 0 mm 7 m/s 751 mmHg 45%
    11:00 +21°C° 0 mm 7 m/s 750 mmHg 43%
    12:00 +23°C° 0 mm 7 m/s 750 mmHg 41%
    13:00 +24°C° 0 mm 7 m/s 749 mmHg 39%
    14:00 +24°C° 0 mm 7 m/s 749 mmHg 40%
    15:00 +23°C° 0 mm 6 m/s 748 mmHg 41%
    16:00 +23°C° 0 mm 5 m/s 748 mmHg 42%
    17:00 +22°C° 0 mm 6 m/s 748 mmHg 45%
    18:00 +21°C° 0 mm 6 m/s 748 mmHg 47%
    19:00 +20°C° 0 mm 6 m/s 748 mmHg 50%
    20:00 +20°C° 0 mm 6 m/s 748 mmHg 50%
    21:00 +20°C° 0 mm 7 m/s 748 mmHg 50%
    22:00 +20°C° 0 mm 7 m/s 748 mmHg 49%
    23:00 +20°C° 0 mm 8 m/s 748 mmHg 49%

    28 Octombrie, Duminică

    Timp Temperatura Precipitaţii Vânt Presiune Umiditate
    00:00 +20°C° 0 mm 8 m/s 748 mmHg 48%
    01:00 +21°C° 0 mm 8 m/s 747 mmHg 47%
    02:00 +20°C° 0 mm 8 m/s 747 mmHg 48%
    03:00 +19°C° 0 mm 9 m/s 747 mmHg 49%
    04:00 +19°C° 0 mm 9 m/s 746 mmHg 50%
    05:00 +19°C° 0 mm 10 m/s 746 mmHg 50%
    06:00 +19°C° 0 mm 10 m/s 746 mmHg 50%
    07:00 +21°C° 0 mm 11 m/s 746 mmHg 50%
    08:00 +21°C° 0.1 mm 11 m/s 746 mmHg 49%
    09:00 +21°C° 0.1 mm 11 m/s 747 mmHg 48%
    10:00 +22°C° 0.1 mm 11 m/s 747 mmHg 47%
    11:00 +22°C° 0.9 mm 10 m/s 747 mmHg 50%
    12:00 +21°C° 0.9 mm 9 m/s 748 mmHg 53%
    13:00 +21°C° 0.9 mm 8 m/s 748 mmHg 55%
    14:00 +20°C° 1.9 mm 7 m/s 748 mmHg 63%
    15:00 +19°C° 1.9 mm 5 m/s 749 mmHg 70%
    16:00 +18°C° 1.9 mm 4 m/s 749 mmHg 77%
    17:00 +18°C° 1.5 mm 3 m/s 749 mmHg 79%
    18:00 +17°C° 1.5 mm 2 m/s 750 mmHg 82%
    19:00 +17°C° 1.5 mm 2 m/s 750 mmHg 84%
    20:00 +16°C° 1.3 mm 2 m/s 751 mmHg 84%
    21:00 +16°C° 1.3 mm 3 m/s 751 mmHg 85%
    22:00 +14°C° 1.3 mm 3 m/s 752 mmHg 85%
    23:00 +14°C° 0.9 mm 3 m/s 752 mmHg 86%
    Arată mai mult